This is the latest recevied weather packets stored in our database for station/object KQ4WWD. If no packets are shown the sender has not sent any weather packets the latest 10 day(s).
| Time | Temp. | Humidity | Pressure | Rain* | Wind** | Luminosity | Snow |
|---|---|---|---|---|---|---|---|
| 1788038396 | 32.22° C | 69% | 1015.9 hPa | 0 mm | - | 146 W/m² | - |
| 1788038092 | 34.44° C | 65% | 1015.7 hPa | 0 mm | - | 161 W/m² | - |
| 1788037792 | 35° C | 59% | 1015.7 hPa | 0 mm | - | 167 W/m² | - |
| 1788037491 | 36.11° C | 55% | 1015.7 hPa | 0 mm | - | 464 W/m² | - |
| 1788037187 | 36.11° C | 53% | 1015.6 hPa | 0 mm | - | 502 W/m² | - |
| 1788036886 | 35.56° C | 54% | 1015.7 hPa | 0 mm | - | 494 W/m² | - |
| 1788036583 | 35.56° C | 54% | 1015.7 hPa | 0 mm | - | 498 W/m² | - |
| 1788036278 | 35.56° C | 54% | 1015.7 hPa | 0 mm | - | 502 W/m² | - |
| 1788035973 | 35° C | 58% | 1015.8 hPa | 0 mm | - | 434 W/m² | - |
| 1788035673 | 35.56° C | 56% | 1015.8 hPa | 0 mm | - | 370 W/m² | - |
| 1788035369 | 35° C | 57% | 1015.8 hPa | 0 mm | - | 443 W/m² | - |
| 1788035064 | 35.56° C | 55% | 1015.8 hPa | 0 mm | - | 416 W/m² | - |
| 1788034760 | 35.56° C | 56% | 1015.9 hPa | 0 mm | - | 428 W/m² | - |
| 1788034456 | 35.56° C | 57% | 1016.1 hPa | 0 mm | - | 486 W/m² | - |
| 1788034152 | 35° C | 59% | 1015.8 hPa | 0 mm | - | 477 W/m² | - |
| 1788033851 | 35.56° C | 58% | 1015.9 hPa | 0 mm | - | 492 W/m² | - |
| 1788033551 | 35.56° C | 57% | 1015.8 hPa | 0 mm | - | 482 W/m² | - |
| 1788033251 | 35° C | 56% | 1015.9 hPa | 0 mm | - | 527 W/m² | - |
| 1788032947 | 34.44° C | 60% | 1016.2 hPa | 0 mm | - | 138 W/m² | - |
| 1788032646 | 34.44° C | 60% | 1016 hPa | 0 mm | - | 133 W/m² | - |
| 1788032341 | 35.56° C | 57% | 1016.2 hPa | 0 mm | - | 176 W/m² | - |
| 1788032037 | 36.11° C | 57% | 1016.5 hPa | 0 mm | - | 609 W/m² | - |
| 1788031732 | 36.11° C | 57% | 1016.4 hPa | 0 mm | - | 637 W/m² | - |
| 1788031431 | 36.67° C | 56% | 1016.3 hPa | 0 mm | - | 654 W/m² | - |
| 1788031127 | 35.56° C | 55% | 1016.4 hPa | 0 mm | - | 660 W/m² | - |
* Rain latest hour (hover to see other rain measurements)
** Current wind speed in m/s (hover to see current wind gust speed)